This is the latest recevied weather packets stored in our database for station/object KI4BIY. If no packets are shown the sender has not sent any weather packets the latest 10 day(s).
| Time | Temp. | Humidity | Pressure | Rain* | Wind** | Luminosity | Snow |
|---|---|---|---|---|---|---|---|
| 1778331896 | 18.33° C | 85% | 1010 hPa | 0 mm | - | 208 W/m² | - |
| 1778331594 | 18.33° C | 85% | 1009.8 hPa | 0 mm | - | 181 W/m² | - |
| 1778331290 | 17.78° C | 87% | 1010.1 hPa | 0 mm | - | 203 W/m² | - |
| 1778330986 | 17.78° C | 88% | 1009.9 hPa | 0 mm | - | 191 W/m² | - |
| 1778330683 | 17.22° C | 89% | 1009.8 hPa | 0 mm | - | 178 W/m² | - |
| 1778330380 | 16.67° C | 91% | 1009.6 hPa | 0 mm | - | 31 W/m² | - |
| 1778330078 | 16.67° C | 92% | 1009.9 hPa | 0 mm | - | 27 W/m² | - |
| 1778329773 | 16.11° C | 93% | 1009.8 hPa | 0 mm | - | 26 W/m² | - |
| 1778329471 | 16.11° C | 93% | 1009.9 hPa | 0 mm | - | 23 W/m² | - |
| 1778329167 | 15.56° C | 94% | 1009.7 hPa | 0 mm | - | 22 W/m² | - |
| 1778328864 | 15.56° C | 94% | 1009.8 hPa | 0 mm | - | 21 W/m² | - |
| 1778328563 | 15.56° C | 94% | 1009.9 hPa | 0 mm | - | 19 W/m² | - |
| 1778328260 | 15.56° C | 94% | 1009.7 hPa | 0 mm | - | 18 W/m² | - |
| 1778327958 | 15.56° C | 94% | 1009.5 hPa | 0 mm | - | 17 W/m² | - |
| 1778327655 | 15.56° C | 94% | 1009.8 hPa | 0 mm | - | 15 W/m² | - |
| 1778327352 | 15.56° C | 94% | 1009.4 hPa | 0 mm | - | 13 W/m² | - |
| 1778327051 | 15° C | 95% | 1009.3 hPa | 0 mm | - | 12 W/m² | - |
| 1778326750 | 15° C | 95% | 1009.5 hPa | 0 mm | - | 11 W/m² | - |
| 1778326447 | 15° C | 95% | 1009.2 hPa | 0 mm | - | 10 W/m² | - |
| 1778326143 | 15° C | 95% | 1009 hPa | 0 mm | - | 8 W/m² | - |
| 1778325841 | 15° C | 95% | 1009 hPa | 0 mm | - | 6 W/m² | - |
| 1778325538 | 15° C | 94% | 1008.8 hPa | 0 mm | - | 4 W/m² | - |
| 1778325234 | 15° C | 94% | 1008.6 hPa | 0 mm | - | 2 W/m² | - |
| 1778324932 | 15° C | 94% | 1008.7 hPa | 0 mm | - | 1 W/m² | - |
| 1778324628 | 15° C | 94% | 1008.7 hPa | 0 mm | - | 0 W/m² | - |
* Rain latest hour (hover to see other rain measurements)
** Current wind speed in m/s (hover to see current wind gust speed)